Year,Month,Day,Hour,Minute,Value (Times are PST for temperature in C)
2018,07,07,00,00,15.90
2018,07,07,00,01,15.90
2018,07,07,00,02,15.90
2018,07,07,00,03,15.90
2018,07,07,00,04,15.80
2018,07,07,00,05,15.80
2018,07,07,00,06,15.80
2018,07,07,00,07,15.80
2018,07,07,00,08,15.80
2018,07,07,00,09,15.80
2018,07,07,00,10,15.80
2018,07,07,00,11,15.80
2018,07,07,00,12,15.70
2018,07,07,00,13,15.70
2018,07,07,00,14,15.70
2018,07,07,00,15,15.70
2018,07,07,00,16,15.70
2018,07,07,00,17,15.70
2018,07,07,00,18,15.70
2018,07,07,00,19,15.60
2018,07,07,00,20,15.60
2018,07,07,00,21,15.60
2018,07,07,00,22,15.60
2018,07,07,00,23,15.60
2018,07,07,00,24,15.60
2018,07,07,00,25,15.60
2018,07,07,00,26,15.50
2018,07,07,00,27,15.50
2018,07,07,00,28,15.50
2018,07,07,00,29,15.40
2018,07,07,00,30,15.40
2018,07,07,00,31,15.40
2018,07,07,00,32,15.40
2018,07,07,00,33,15.40
2018,07,07,00,34,15.30
2018,07,07,00,35,15.30
2018,07,07,00,36,15.30
2018,07,07,00,37,15.30
2018,07,07,00,38,15.30
2018,07,07,00,39,15.30
2018,07,07,00,40,15.30
2018,07,07,00,41,15.30
2018,07,07,00,42,15.30
2018,07,07,00,43,15.30
2018,07,07,00,44,15.30
2018,07,07,00,45,15.30
2018,07,07,00,46,15.30
2018,07,07,00,47,15.30
2018,07,07,00,48,15.30
2018,07,07,00,49,15.30
2018,07,07,00,50,15.20
2018,07,07,00,51,15.20
2018,07,07,00,52,15.20
2018,07,07,00,53,15.20
2018,07,07,00,54,15.20
2018,07,07,00,55,15.20
2018,07,07,00,56,15.20
2018,07,07,00,57,15.20
2018,07,07,00,58,15.20
2018,07,07,00,59,15.20
2018,07,07,01,00,15.20
2018,07,07,01,01,15.10
2018,07,07,01,02,15.10
2018,07,07,01,03,15.10
2018,07,07,01,04,15.10
2018,07,07,01,05,15.10
2018,07,07,01,06,15.10
2018,07,07,01,07,15.10
2018,07,07,01,08,15.20
2018,07,07,01,09,15.20
2018,07,07,01,10,15.20
2018,07,07,01,11,15.20
2018,07,07,01,12,15.20
2018,07,07,01,13,15.20
2018,07,07,01,14,15.30
2018,07,07,01,15,15.30
2018,07,07,01,16,15.30
2018,07,07,01,17,15.20
2018,07,07,01,18,15.20
2018,07,07,01,19,15.20
2018,07,07,01,20,15.20
2018,07,07,01,21,15.20
2018,07,07,01,22,15.20
2018,07,07,01,23,15.20
2018,07,07,01,24,15.20
2018,07,07,01,25,15.20
2018,07,07,01,26,15.20
2018,07,07,01,27,15.20
2018,07,07,01,28,15.20
2018,07,07,01,29,15.20
2018,07,07,01,30,15.10
2018,07,07,01,31,15.10
2018,07,07,01,32,15.10
2018,07,07,01,33,15.10
2018,07,07,01,34,15.10
2018,07,07,01,35,15.10
2018,07,07,01,36,15.10
2018,07,07,01,37,15.10
2018,07,07,01,38,15.10
2018,07,07,01,39,15.10
2018,07,07,01,40,15.10
2018,07,07,01,41,15.10
2018,07,07,01,42,15.10
2018,07,07,01,43,15.10
2018,07,07,01,44,15.00
2018,07,07,01,45,15.00
2018,07,07,01,46,15.00
2018,07,07,01,47,15.00
2018,07,07,01,48,14.90
2018,07,07,01,49,14.90
2018,07,07,01,50,14.90
2018,07,07,01,51,14.90
2018,07,07,01,52,14.90
2018,07,07,01,53,14.90
2018,07,07,01,54,14.90
2018,07,07,01,55,14.80
2018,07,07,01,56,14.80
2018,07,07,01,57,14.80
2018,07,07,01,58,14.80
2018,07,07,01,59,14.80
2018,07,07,02,00,14.80
2018,07,07,02,01,14.80
2018,07,07,02,02,14.80
2018,07,07,02,03,14.80
2018,07,07,02,04,14.70
2018,07,07,02,05,14.70
2018,07,07,02,06,14.70
2018,07,07,02,07,14.70
2018,07,07,02,08,14.70
2018,07,07,02,09,14.70
2018,07,07,02,10,14.70
2018,07,07,02,11,14.70
2018,07,07,02,12,14.70
2018,07,07,02,13,14.70
2018,07,07,02,14,14.70
2018,07,07,02,15,14.70
2018,07,07,02,16,14.70
2018,07,07,02,17,14.70
2018,07,07,02,18,14.70
2018,07,07,02,19,14.70
2018,07,07,02,20,14.60
2018,07,07,02,21,14.60
2018,07,07,02,22,14.60
2018,07,07,02,23,14.60
2018,07,07,02,24,14.60
2018,07,07,02,25,14.50
2018,07,07,02,26,14.50
2018,07,07,02,27,14.50
2018,07,07,02,28,14.50
2018,07,07,02,29,14.50
2018,07,07,02,30,14.40
2018,07,07,02,31,14.40
2018,07,07,02,32,14.40
2018,07,07,02,33,14.40
2018,07,07,02,34,14.40
2018,07,07,02,35,14.40
2018,07,07,02,36,14.30
2018,07,07,02,37,14.30
2018,07,07,02,38,14.30
2018,07,07,02,39,14.30
2018,07,07,02,40,14.30
2018,07,07,02,41,14.30
2018,07,07,02,42,14.30
2018,07,07,02,43,14.30
2018,07,07,02,44,14.30
2018,07,07,02,45,14.20
2018,07,07,02,46,14.20
2018,07,07,02,47,14.20
2018,07,07,02,48,14.20
2018,07,07,02,49,14.20
2018,07,07,02,50,14.20
2018,07,07,02,51,14.20
2018,07,07,02,52,14.20
2018,07,07,02,53,14.20
2018,07,07,02,54,14.20
2018,07,07,02,55,14.10
2018,07,07,02,56,14.10
2018,07,07,02,57,14.10
2018,07,07,02,58,14.10
2018,07,07,02,59,14.10
2018,07,07,03,00,14.10
2018,07,07,03,01,14.10
2018,07,07,03,02,14.10
2018,07,07,03,03,14.10
2018,07,07,03,04,14.00
2018,07,07,03,05,14.00
2018,07,07,03,06,14.00
2018,07,07,03,07,14.00
2018,07,07,03,08,14.00
2018,07,07,03,09,14.00
2018,07,07,03,10,14.00
2018,07,07,03,11,13.90
2018,07,07,03,12,13.90
2018,07,07,03,13,13.90
2018,07,07,03,14,13.90
2018,07,07,03,15,13.90
2018,07,07,03,16,13.90
2018,07,07,03,17,13.80
2018,07,07,03,18,13.80
2018,07,07,03,19,13.80
2018,07,07,03,20,13.80
2018,07,07,03,21,13.80
2018,07,07,03,22,13.70
2018,07,07,03,23,13.70
2018,07,07,03,24,13.70
2018,07,07,03,25,13.70
2018,07,07,03,26,13.70
2018,07,07,03,27,13.60
2018,07,07,03,28,13.60
2018,07,07,03,29,13.60
2018,07,07,03,30,13.60
2018,07,07,03,31,13.50
2018,07,07,03,32,13.50
2018,07,07,03,33,13.40
2018,07,07,03,34,13.40
2018,07,07,03,35,13.40
2018,07,07,03,36,13.30
2018,07,07,03,37,13.30
2018,07,07,03,38,13.30
2018,07,07,03,39,13.20
2018,07,07,03,40,13.20
2018,07,07,03,41,13.10
2018,07,07,03,42,13.00
2018,07,07,03,43,13.00
2018,07,07,03,44,12.90
2018,07,07,03,45,12.90
2018,07,07,03,46,12.90
2018,07,07,03,47,12.80
2018,07,07,03,48,12.80
2018,07,07,03,49,12.80
2018,07,07,03,50,12.80
2018,07,07,03,51,12.70
2018,07,07,03,52,12.70
2018,07,07,03,53,12.70
2018,07,07,03,54,12.60
2018,07,07,03,55,12.60
2018,07,07,03,56,12.60
2018,07,07,03,57,12.50
2018,07,07,03,58,12.50
2018,07,07,03,59,12.50
2018,07,07,04,00,12.40
2018,07,07,04,01,12.40
2018,07,07,04,02,12.40
2018,07,07,04,03,12.30
2018,07,07,04,04,12.30
2018,07,07,04,05,12.30
2018,07,07,04,06,12.30
2018,07,07,04,07,12.30
2018,07,07,04,08,12.30
2018,07,07,04,09,12.20
2018,07,07,04,10,12.20
2018,07,07,04,11,12.20
2018,07,07,04,12,12.20
2018,07,07,04,13,12.20
2018,07,07,04,14,12.20
2018,07,07,04,15,12.10
2018,07,07,04,16,12.10
2018,07,07,04,17,12.10
2018,07,07,04,18,12.10
2018,07,07,04,19,12.10
2018,07,07,04,20,12.10
2018,07,07,04,21,12.10
2018,07,07,04,22,12.00
2018,07,07,04,23,12.00
2018,07,07,04,24,12.00
2018,07,07,04,25,11.90
2018,07,07,04,26,11.90
2018,07,07,04,27,11.90
2018,07,07,04,28,11.90
2018,07,07,04,29,11.90
2018,07,07,04,30,11.90
2018,07,07,04,31,11.90
2018,07,07,04,32,11.90
2018,07,07,04,33,11.90
2018,07,07,04,34,11.80
2018,07,07,04,35,11.80
2018,07,07,04,36,11.80
2018,07,07,04,37,11.80
2018,07,07,04,38,11.80
2018,07,07,04,39,11.80
2018,07,07,04,40,11.80
2018,07,07,04,41,11.80
2018,07,07,04,42,11.80
2018,07,07,04,43,11.80
2018,07,07,04,44,11.80
2018,07,07,04,45,11.80
2018,07,07,04,46,11.80
2018,07,07,04,47,11.80
2018,07,07,04,48,11.80
2018,07,07,04,49,11.70
2018,07,07,04,50,11.70
2018,07,07,04,51,11.70
2018,07,07,04,52,11.70
2018,07,07,04,53,11.70
2018,07,07,04,54,11.60
2018,07,07,04,55,11.60
2018,07,07,04,56,11.60
2018,07,07,04,57,11.60
2018,07,07,04,58,11.60
2018,07,07,04,59,11.50
2018,07,07,05,00,11.50
2018,07,07,05,01,11.50
2018,07,07,05,02,11.50
2018,07,07,05,03,11.40
2018,07,07,05,04,11.40
2018,07,07,05,05,11.40
2018,07,07,05,06,11.40
2018,07,07,05,07,11.40
2018,07,07,05,08,11.40
2018,07,07,05,09,11.40
2018,07,07,05,10,11.40
2018,07,07,05,11,11.40
2018,07,07,05,12,11.40
2018,07,07,05,13,11.40
2018,07,07,05,14,11.30
2018,07,07,05,15,11.30
2018,07,07,05,16,11.30
2018,07,07,05,17,11.30
2018,07,07,05,18,11.30
2018,07,07,05,19,11.30
2018,07,07,05,20,11.30
2018,07,07,05,21,11.30
2018,07,07,05,22,11.30
2018,07,07,05,23,11.30
2018,07,07,05,24,11.30
2018,07,07,05,25,11.30
2018,07,07,05,26,11.30
2018,07,07,05,27,11.30
2018,07,07,05,28,11.30
2018,07,07,05,29,11.30
2018,07,07,05,30,11.30
2018,07,07,05,31,11.30
2018,07,07,05,32,11.30
2018,07,07,05,33,11.30
2018,07,07,05,34,11.30
2018,07,07,05,35,11.30
2018,07,07,05,36,11.30
2018,07,07,05,37,11.20
2018,07,07,05,38,11.20
2018,07,07,05,39,11.20
2018,07,07,05,40,11.20
2018,07,07,05,41,11.20
2018,07,07,05,42,11.20
2018,07,07,05,43,11.20
2018,07,07,05,44,11.20
2018,07,07,05,45,11.20
2018,07,07,05,46,11.20
2018,07,07,05,47,11.10
2018,07,07,05,48,11.10
2018,07,07,05,49,11.10
2018,07,07,05,50,11.10
2018,07,07,05,51,11.10
2018,07,07,05,52,11.10
2018,07,07,05,53,11.10
2018,07,07,05,54,11.10
2018,07,07,05,55,11.10
2018,07,07,05,56,11.10
2018,07,07,05,57,11.10
2018,07,07,05,58,11.10
2018,07,07,05,59,11.10
2018,07,07,06,00,11.10
2018,07,07,06,01,11.10
2018,07,07,06,02,11.10
2018,07,07,06,03,11.10
2018,07,07,06,04,11.10
2018,07,07,06,05,11.00
2018,07,07,06,06,11.00
2018,07,07,06,07,11.00
2018,07,07,06,08,11.00
2018,07,07,06,09,11.00
2018,07,07,06,10,11.00
2018,07,07,06,11,11.00
2018,07,07,06,12,11.00
2018,07,07,06,13,11.00
2018,07,07,06,14,11.00
2018,07,07,06,15,11.00
2018,07,07,06,16,11.00
2018,07,07,06,17,11.00
2018,07,07,06,18,11.00
2018,07,07,06,19,11.00
2018,07,07,06,20,11.00
2018,07,07,06,21,11.00
2018,07,07,06,22,11.00
2018,07,07,06,23,10.90
2018,07,07,06,24,10.90
2018,07,07,06,25,10.90
2018,07,07,06,26,10.90
2018,07,07,06,27,10.90
2018,07,07,06,28,10.90
2018,07,07,06,29,10.90
2018,07,07,06,30,10.90
2018,07,07,06,31,10.90
2018,07,07,06,32,10.90
2018,07,07,06,33,10.90
2018,07,07,06,34,10.90
2018,07,07,06,35,10.90
2018,07,07,06,36,10.90
2018,07,07,06,37,10.90
2018,07,07,06,38,10.90
2018,07,07,06,39,10.90
2018,07,07,06,40,10.90
2018,07,07,06,41,10.90
2018,07,07,06,42,10.90
2018,07,07,06,43,10.90
2018,07,07,06,44,10.90
2018,07,07,06,45,10.90
2018,07,07,06,46,10.90
2018,07,07,06,47,10.90
2018,07,07,06,48,10.90
2018,07,07,06,49,10.90
2018,07,07,06,50,10.90
2018,07,07,06,51,10.90
2018,07,07,06,52,10.90
2018,07,07,06,53,10.90
2018,07,07,06,54,10.90
2018,07,07,06,55,10.90
2018,07,07,06,56,11.00
2018,07,07,06,57,11.00
2018,07,07,06,58,11.00
2018,07,07,06,59,11.00
2018,07,07,07,00,11.00
2018,07,07,07,01,11.00
2018,07,07,07,02,11.00
2018,07,07,07,03,11.00
2018,07,07,07,04,11.00
2018,07,07,07,05,11.00
2018,07,07,07,06,11.00
2018,07,07,07,07,11.00
2018,07,07,07,08,11.00
2018,07,07,07,09,11.00
2018,07,07,07,10,11.00
2018,07,07,07,11,11.10
2018,07,07,07,12,11.10
2018,07,07,07,13,11.10
2018,07,07,07,14,11.10
2018,07,07,07,15,11.10
2018,07,07,07,16,11.10
2018,07,07,07,17,11.10
2018,07,07,07,18,11.10
2018,07,07,07,19,11.20
2018,07,07,07,20,11.20
2018,07,07,07,21,11.20
2018,07,07,07,22,11.20
2018,07,07,07,23,11.20
2018,07,07,07,24,11.20
2018,07,07,07,25,11.20
2018,07,07,07,26,11.30
2018,07,07,07,27,11.30
2018,07,07,07,28,11.30
2018,07,07,07,29,11.30
2018,07,07,07,30,11.30
2018,07,07,07,31,11.40
2018,07,07,07,32,11.40
2018,07,07,07,33,11.40
2018,07,07,07,34,11.40
2018,07,07,07,35,11.50
2018,07,07,07,36,11.50
2018,07,07,07,37,11.60
2018,07,07,07,38,11.60
2018,07,07,07,39,11.60
2018,07,07,07,40,11.70
2018,07,07,07,41,11.70
2018,07,07,07,42,11.70
2018,07,07,07,43,11.80
2018,07,07,07,44,11.80
2018,07,07,07,45,11.80
2018,07,07,07,46,11.80
2018,07,07,07,47,11.80
2018,07,07,07,48,11.90
2018,07,07,07,49,11.90
2018,07,07,07,50,11.90
2018,07,07,07,51,11.90
2018,07,07,07,52,11.90
2018,07,07,07,53,12.00
2018,07,07,07,54,12.00
2018,07,07,07,55,12.10
2018,07,07,07,56,12.10
2018,07,07,07,57,12.10
2018,07,07,07,58,12.10
2018,07,07,07,59,12.20
2018,07,07,08,00,12.20
2018,07,07,08,01,12.20
2018,07,07,08,02,12.20
2018,07,07,08,03,12.20
2018,07,07,08,04,12.30
2018,07,07,08,05,12.30
2018,07,07,08,06,12.30
2018,07,07,08,07,12.30
2018,07,07,08,08,12.30
2018,07,07,08,09,12.30
2018,07,07,08,10,12.40
2018,07,07,08,11,12.40
2018,07,07,08,12,12.40
2018,07,07,08,13,12.40
2018,07,07,08,14,12.40
2018,07,07,08,15,12.40
2018,07,07,08,16,12.40
2018,07,07,08,17,12.50
2018,07,07,08,18,12.50
2018,07,07,08,19,12.50
2018,07,07,08,20,12.50
2018,07,07,08,21,12.50
2018,07,07,08,22,12.60
2018,07,07,08,23,12.60
2018,07,07,08,24,12.60
2018,07,07,08,25,12.60
2018,07,07,08,26,12.60
2018,07,07,08,27,12.60
2018,07,07,08,28,12.60
2018,07,07,08,29,12.70
2018,07,07,08,30,12.70
2018,07,07,08,31,12.70
2018,07,07,08,32,12.70
2018,07,07,08,33,12.70
2018,07,07,08,34,12.80
2018,07,07,08,35,12.80
2018,07,07,08,36,12.80
2018,07,07,08,37,12.80
2018,07,07,08,38,12.80
2018,07,07,08,39,12.90
2018,07,07,08,40,12.90
2018,07,07,08,41,12.90
2018,07,07,08,42,12.90
2018,07,07,08,43,13.00
2018,07,07,08,44,13.00
2018,07,07,08,45,13.00
2018,07,07,08,46,13.10
2018,07,07,08,47,13.10
2018,07,07,08,48,13.10
2018,07,07,08,49,13.20
2018,07,07,08,50,13.20
2018,07,07,08,51,13.20
2018,07,07,08,52,13.20
2018,07,07,08,53,13.30
2018,07,07,08,54,13.30
2018,07,07,08,55,13.30
2018,07,07,08,56,13.40
2018,07,07,08,57,13.40
2018,07,07,08,58,13.40
2018,07,07,08,59,13.50
2018,07,07,09,00,13.50
2018,07,07,09,01,13.50
2018,07,07,09,02,13.50
2018,07,07,09,03,13.60
2018,07,07,09,04,13.60
2018,07,07,09,05,13.60
2018,07,07,09,06,13.60
2018,07,07,09,07,13.60
2018,07,07,09,08,13.70
2018,07,07,09,09,13.70
2018,07,07,09,10,13.70
2018,07,07,09,11,13.70
2018,07,07,09,12,13.70
2018,07,07,09,13,13.80
2018,07,07,09,14,13.80
2018,07,07,09,15,13.80
2018,07,07,09,16,13.80
2018,07,07,09,17,13.80
2018,07,07,09,18,13.80
2018,07,07,09,19,13.80
2018,07,07,09,20,13.90
2018,07,07,09,21,13.90
2018,07,07,09,22,13.90
2018,07,07,09,23,13.90
2018,07,07,09,24,13.90
2018,07,07,09,25,13.90
2018,07,07,09,26,13.90
2018,07,07,09,27,14.00
2018,07,07,09,28,14.00
2018,07,07,09,29,14.00
2018,07,07,09,30,14.00
2018,07,07,09,31,14.10
2018,07,07,09,32,14.10
2018,07,07,09,33,14.10
2018,07,07,09,34,14.10
2018,07,07,09,35,14.10
2018,07,07,09,36,14.10
2018,07,07,09,37,14.20
2018,07,07,09,38,14.20
2018,07,07,09,39,14.20
2018,07,07,09,40,14.20
2018,07,07,09,41,14.20
2018,07,07,09,42,14.20
2018,07,07,09,43,14.20
2018,07,07,09,44,14.20
2018,07,07,09,45,14.30
2018,07,07,09,46,14.30
2018,07,07,09,47,14.30
2018,07,07,09,48,14.30
2018,07,07,09,49,14.30
2018,07,07,09,50,14.40
2018,07,07,09,51,14.40
2018,07,07,09,52,14.40
2018,07,07,09,53,14.50
2018,07,07,09,54,14.50
2018,07,07,09,55,14.60
2018,07,07,09,56,14.60
2018,07,07,09,57,14.60
2018,07,07,09,58,14.70
2018,07,07,09,59,14.70
2018,07,07,10,00,14.80
2018,07,07,10,01,14.80
2018,07,07,10,02,14.80
2018,07,07,10,03,14.80
2018,07,07,10,04,14.90
2018,07,07,10,05,14.90
2018,07,07,10,06,14.90
2018,07,07,10,07,15.00
2018,07,07,10,08,15.00
2018,07,07,10,09,15.00
2018,07,07,10,10,15.10
2018,07,07,10,11,15.10
2018,07,07,10,12,15.10
2018,07,07,10,13,15.20
2018,07,07,10,14,15.20
2018,07,07,10,15,15.20
2018,07,07,10,16,15.30
2018,07,07,10,17,15.30
2018,07,07,10,18,15.30
2018,07,07,10,19,15.40
2018,07,07,10,20,15.40
2018,07,07,10,21,15.50
2018,07,07,10,22,15.50
2018,07,07,10,23,15.60
2018,07,07,10,24,15.60
2018,07,07,10,25,15.70
2018,07,07,10,26,15.70
2018,07,07,10,27,15.70
2018,07,07,10,28,15.80
2018,07,07,10,29,15.80
2018,07,07,10,30,15.90
2018,07,07,10,31,15.90
2018,07,07,10,32,15.90
2018,07,07,10,33,16.00
2018,07,07,10,34,16.00
2018,07,07,10,35,16.10
2018,07,07,10,36,16.10
2018,07,07,10,37,16.10
2018,07,07,10,38,16.10
2018,07,07,10,39,16.10
2018,07,07,10,40,16.10
2018,07,07,10,41,16.10
2018,07,07,10,42,16.10
2018,07,07,10,43,16.10
2018,07,07,10,44,16.10
2018,07,07,10,45,16.10
2018,07,07,10,46,16.10
2018,07,07,10,47,16.10
2018,07,07,10,48,16.10
2018,07,07,10,49,16.20
2018,07,07,10,50,16.20
2018,07,07,10,51,16.20
2018,07,07,10,52,16.20
2018,07,07,10,53,16.20
2018,07,07,10,54,16.20
2018,07,07,10,55,16.20
2018,07,07,10,56,16.20
2018,07,07,10,57,16.20
2018,07,07,10,58,16.20
2018,07,07,10,59,16.20
2018,07,07,11,00,16.20
2018,07,07,11,01,16.30
2018,07,07,11,02,16.30
2018,07,07,11,03,16.30
2018,07,07,11,04,16.30
2018,07,07,11,05,16.30
2018,07,07,11,06,16.30
2018,07,07,11,07,16.30
2018,07,07,11,08,16.30
2018,07,07,11,09,16.30
2018,07,07,11,10,16.30
2018,07,07,11,11,16.30
2018,07,07,11,12,16.30
2018,07,07,11,13,16.30
2018,07,07,11,14,16.30
2018,07,07,11,15,16.30
2018,07,07,11,16,16.40
2018,07,07,11,17,16.40
2018,07,07,11,18,16.50
2018,07,07,11,19,16.50
2018,07,07,11,20,16.60
2018,07,07,11,21,16.60
2018,07,07,11,22,16.70
2018,07,07,11,23,16.70
2018,07,07,11,24,16.80
2018,07,07,11,25,16.80
2018,07,07,11,26,16.90
2018,07,07,11,27,17.00
2018,07,07,11,28,17.00
2018,07,07,11,29,17.10
2018,07,07,11,30,17.10
2018,07,07,11,31,17.20
2018,07,07,11,32,17.20
2018,07,07,11,33,17.30
2018,07,07,11,34,17.40
2018,07,07,11,35,17.40
2018,07,07,11,36,17.50
2018,07,07,11,37,17.50
2018,07,07,11,38,17.60
2018,07,07,11,39,17.70
2018,07,07,11,40,17.70
2018,07,07,11,41,17.80
2018,07,07,11,42,17.80
2018,07,07,11,43,17.80
2018,07,07,11,44,17.90
2018,07,07,11,45,17.90
2018,07,07,11,46,17.90
2018,07,07,11,47,17.90
2018,07,07,11,48,18.00
2018,07,07,11,49,18.00
2018,07,07,11,50,18.00
2018,07,07,11,51,18.10
2018,07,07,11,52,18.10
2018,07,07,11,53,18.10
2018,07,07,11,54,18.20
2018,07,07,11,55,18.20
2018,07,07,11,56,18.20
2018,07,07,11,57,18.20
2018,07,07,11,58,18.20
2018,07,07,11,59,18.30
2018,07,07,12,00,18.30
2018,07,07,12,01,18.30
2018,07,07,12,02,18.40
2018,07,07,12,03,18.40
2018,07,07,12,04,18.40
2018,07,07,12,05,18.50
2018,07,07,12,06,18.50
2018,07,07,12,07,18.50
2018,07,07,12,08,18.60
2018,07,07,12,09,18.60
2018,07,07,12,10,18.60
2018,07,07,12,11,18.70
2018,07,07,12,12,18.80
2018,07,07,12,13,18.80
2018,07,07,12,14,18.80
2018,07,07,12,15,18.90
2018,07,07,12,16,18.90
2018,07,07,12,17,18.90
2018,07,07,12,18,18.90
2018,07,07,12,19,18.90
2018,07,07,12,20,18.90
2018,07,07,12,21,18.90
2018,07,07,12,22,18.90
2018,07,07,12,23,18.90
2018,07,07,12,24,18.90
2018,07,07,12,25,19.00
2018,07,07,12,26,19.00
2018,07,07,12,27,19.10
2018,07,07,12,28,19.10
2018,07,07,12,29,19.10
2018,07,07,12,30,19.10
2018,07,07,12,31,19.10
2018,07,07,12,32,19.20
2018,07,07,12,33,19.20
2018,07,07,12,34,19.20
2018,07,07,12,35,19.30
2018,07,07,12,36,19.30
2018,07,07,12,37,19.30
2018,07,07,12,38,19.30
2018,07,07,12,39,19.40
2018,07,07,12,40,19.40
2018,07,07,12,41,19.40
2018,07,07,12,42,19.40
2018,07,07,12,43,19.40
2018,07,07,12,44,19.50
2018,07,07,12,45,19.50
2018,07,07,12,46,19.50
2018,07,07,12,47,19.50
2018,07,07,12,48,19.60
2018,07,07,12,49,19.60
2018,07,07,12,50,19.60
2018,07,07,12,51,19.60
2018,07,07,12,52,19.70
2018,07,07,12,53,19.70
2018,07,07,12,54,19.70
2018,07,07,12,55,19.70
2018,07,07,12,56,19.70
2018,07,07,12,57,19.70
2018,07,07,12,58,19.80
2018,07,07,12,59,19.80
2018,07,07,13,00,19.80
2018,07,07,13,01,19.80
2018,07,07,13,02,19.90
2018,07,07,13,03,19.90
2018,07,07,13,04,19.90
2018,07,07,13,05,20.00
2018,07,07,13,06,20.10
2018,07,07,13,07,20.10
2018,07,07,13,08,20.10
2018,07,07,13,09,20.20
2018,07,07,13,10,20.20
2018,07,07,13,11,20.30
2018,07,07,13,12,20.30
2018,07,07,13,13,20.30
2018,07,07,13,14,20.40
2018,07,07,13,15,20.40
2018,07,07,13,16,20.40
2018,07,07,13,17,20.50
2018,07,07,13,18,20.50
2018,07,07,13,19,20.60
2018,07,07,13,20,20.60
2018,07,07,13,21,20.70
2018,07,07,13,22,20.70
2018,07,07,13,23,20.70
2018,07,07,13,24,20.70
2018,07,07,13,25,20.70
2018,07,07,13,26,20.80
2018,07,07,13,27,20.80
2018,07,07,13,28,20.80
2018,07,07,13,29,20.80
2018,07,07,13,30,20.80
2018,07,07,13,31,20.80
2018,07,07,13,32,20.80
2018,07,07,13,33,20.80
2018,07,07,13,34,20.80
2018,07,07,13,35,20.80
2018,07,07,13,36,20.90
2018,07,07,13,37,20.90
2018,07,07,13,38,20.90
2018,07,07,13,39,21.00
2018,07,07,13,40,21.00
2018,07,07,13,41,21.10
2018,07,07,13,42,21.10
2018,07,07,13,43,21.10
2018,07,07,13,44,21.20
2018,07,07,13,45,21.20
2018,07,07,13,46,21.30
2018,07,07,13,47,21.30
2018,07,07,13,48,21.30
2018,07,07,13,49,21.40
2018,07,07,13,50,21.40
2018,07,07,13,51,21.40
2018,07,07,13,52,21.40
2018,07,07,13,53,21.50
2018,07,07,13,54,21.50
2018,07,07,13,55,21.50
2018,07,07,13,56,21.60
2018,07,07,13,57,21.60
2018,07,07,13,58,21.60
2018,07,07,13,59,21.70
2018,07,07,14,00,21.70
2018,07,07,14,01,21.70
2018,07,07,14,02,21.70
2018,07,07,14,03,21.80
2018,07,07,14,04,21.80
2018,07,07,14,05,21.90
2018,07,07,14,06,21.90
2018,07,07,14,07,22.00
2018,07,07,14,08,22.00
2018,07,07,14,09,22.10
2018,07,07,14,10,22.10
2018,07,07,14,11,22.20
2018,07,07,14,12,22.20
2018,07,07,14,13,22.30
2018,07,07,14,14,22.30
2018,07,07,14,15,22.40
2018,07,07,14,16,22.40
2018,07,07,14,17,22.50
2018,07,07,14,18,22.50
2018,07,07,14,19,22.60
2018,07,07,14,20,22.60
2018,07,07,14,21,22.60
2018,07,07,14,22,22.70
2018,07,07,14,23,22.70
2018,07,07,14,24,22.70
2018,07,07,14,25,22.70
2018,07,07,14,26,22.70
2018,07,07,14,27,22.70
2018,07,07,14,28,22.70
2018,07,07,14,29,22.70
2018,07,07,14,30,22.70
2018,07,07,14,31,22.70
2018,07,07,14,32,22.70
2018,07,07,14,33,22.80
2018,07,07,14,34,22.80
2018,07,07,14,35,22.80
2018,07,07,14,36,22.80
2018,07,07,14,37,22.80
2018,07,07,14,38,22.80
2018,07,07,14,39,22.80
2018,07,07,14,40,22.80
2018,07,07,14,41,22.70
2018,07,07,14,42,22.80
2018,07,07,14,43,22.80
2018,07,07,14,44,22.80
2018,07,07,14,45,22.80
2018,07,07,14,46,22.90
2018,07,07,14,47,22.90
2018,07,07,14,48,22.90
2018,07,07,14,49,22.90
2018,07,07,14,50,22.90
2018,07,07,14,51,23.00
2018,07,07,14,52,23.00
2018,07,07,14,53,23.00
2018,07,07,14,54,23.00
2018,07,07,14,55,23.10
2018,07,07,14,56,23.10
2018,07,07,14,57,23.10
2018,07,07,14,58,23.10
2018,07,07,14,59,23.10
2018,07,07,15,00,23.10
2018,07,07,15,01,23.10
2018,07,07,15,02,23.10
2018,07,07,15,03,23.10
2018,07,07,15,04,23.10
2018,07,07,15,05,23.10
2018,07,07,15,06,23.20
2018,07,07,15,07,23.20
2018,07,07,15,08,23.20
2018,07,07,15,09,23.20
2018,07,07,15,10,23.20
2018,07,07,15,11,23.20
2018,07,07,15,12,23.20
2018,07,07,15,13,23.20
2018,07,07,15,14,23.30
2018,07,07,15,15,23.30
2018,07,07,15,16,23.30
2018,07,07,15,17,23.30
2018,07,07,15,18,23.30
2018,07,07,15,19,23.30
2018,07,07,15,20,23.30
2018,07,07,15,21,23.30
2018,07,07,15,22,23.30
2018,07,07,15,23,23.30
2018,07,07,15,24,23.30
2018,07,07,15,25,23.40
2018,07,07,15,26,23.40
2018,07,07,15,27,23.40
2018,07,07,15,28,23.50
2018,07,07,15,29,23.50
2018,07,07,15,30,23.50
2018,07,07,15,31,23.60
2018,07,07,15,32,23.60
2018,07,07,15,33,23.60
2018,07,07,15,34,23.70
2018,07,07,15,35,23.70
2018,07,07,15,36,23.70
2018,07,07,15,37,23.70
2018,07,07,15,38,23.70
2018,07,07,15,39,23.70
2018,07,07,15,40,23.80
2018,07,07,15,41,23.80
2018,07,07,15,42,23.80
2018,07,07,15,43,23.80
2018,07,07,15,44,23.80
2018,07,07,15,45,23.80
2018,07,07,15,46,23.80
2018,07,07,15,47,23.80
2018,07,07,15,48,23.80
2018,07,07,15,49,23.80
2018,07,07,15,50,23.80
2018,07,07,15,51,23.80
2018,07,07,15,52,23.90
2018,07,07,15,53,23.90
2018,07,07,15,54,23.90
2018,07,07,15,55,23.90
2018,07,07,15,56,24.00
2018,07,07,15,57,24.00
2018,07,07,15,58,24.10
2018,07,07,15,59,24.10
2018,07,07,16,00,24.20
2018,07,07,16,01,24.20
2018,07,07,16,02,24.20
2018,07,07,16,03,24.20
2018,07,07,16,04,24.20
2018,07,07,16,05,24.20
2018,07,07,16,06,24.30
2018,07,07,16,07,24.30
2018,07,07,16,08,24.20
2018,07,07,16,09,24.20
2018,07,07,16,10,24.20
2018,07,07,16,11,24.20
2018,07,07,16,12,24.20
2018,07,07,16,13,24.20
2018,07,07,16,14,24.20
2018,07,07,16,15,24.20
2018,07,07,16,16,24.20
2018,07,07,16,17,24.20
2018,07,07,16,18,24.20
2018,07,07,16,19,24.20
2018,07,07,16,20,24.30
2018,07,07,16,21,24.30
2018,07,07,16,22,24.30
2018,07,07,16,23,24.30
2018,07,07,16,24,24.30
2018,07,07,16,25,24.30
2018,07,07,16,26,24.30
2018,07,07,16,27,24.30
2018,07,07,16,28,24.30
2018,07,07,16,29,24.30
2018,07,07,16,30,24.30
2018,07,07,16,31,24.30
2018,07,07,16,32,24.30
2018,07,07,16,33,24.40
2018,07,07,16,34,24.40
2018,07,07,16,35,24.40
2018,07,07,16,36,24.40
2018,07,07,16,37,24.40
2018,07,07,16,38,24.40
2018,07,07,16,39,24.40
2018,07,07,16,40,24.40
2018,07,07,16,41,24.40
2018,07,07,16,42,24.40
2018,07,07,16,43,24.40
2018,07,07,16,44,24.40
2018,07,07,16,45,24.40
2018,07,07,16,46,24.50
2018,07,07,16,47,24.50
2018,07,07,16,48,24.50
2018,07,07,16,49,24.50
2018,07,07,16,50,24.60
2018,07,07,16,51,24.60
2018,07,07,16,52,24.60
2018,07,07,16,53,24.60
2018,07,07,16,54,24.60
2018,07,07,16,55,24.70
2018,07,07,16,56,24.70
2018,07,07,16,57,24.70
2018,07,07,16,58,24.70
2018,07,07,16,59,24.70
2018,07,07,17,00,24.70
2018,07,07,17,01,24.60
2018,07,07,17,02,24.70
2018,07,07,17,03,24.70
2018,07,07,17,04,24.70
2018,07,07,17,05,24.70
2018,07,07,17,06,24.70
2018,07,07,17,07,24.70
2018,07,07,17,08,24.70
2018,07,07,17,09,24.70
2018,07,07,17,10,24.60
2018,07,07,17,11,24.60
2018,07,07,17,12,24.60
2018,07,07,17,13,24.60
2018,07,07,17,14,24.70
2018,07,07,17,15,24.70
2018,07,07,17,16,24.70
2018,07,07,17,17,24.70
2018,07,07,17,18,24.70
2018,07,07,17,19,24.70